| time (UTC) | temp F | wind direction | speed MPH | gust MPH | rain 1hr in | rain 24hr in | rain mn in | humidity % | barometer mb |
| 20260505223904 | 73 | 265 | 10.0 | 18.0 | 0.00 | 0.02 | 0.02 | 48 | 1004.4 |
| 20260505223404 | 73 | 211 | 10.0 | 21.0 | 0.00 | 0.02 | 0.02 | 48 | 1004.3 |
| 20260505222904 | 73 | 225 | 12.0 | 23.0 | 0.00 | 0.02 | 0.02 | 48 | 1004.2 |
| 20260505222404 | 74 | 211 | 12.0 | 21.0 | 0.00 | 0.02 | 0.02 | 48 | 1004.4 |
| 20260505221403 | 73 | 221 | 12.0 | 20.0 | 0.00 | 0.02 | 0.02 | 49 | 1004.4 |
| 20260505220903 | 73 | 224 | 9.0 | 15.0 | 0.00 | 0.02 | 0.02 | 49 | 1004.3 |
| 20260505220403 | 73 | 218 | 9.0 | 20.0 | 0.00 | 0.02 | 0.02 | 49 | 1004.2 |
| 20260505215404 | 74 | 221 | 6.0 | 13.0 | 0.00 | 0.02 | 0.02 | 50 | 1004.2 |
| 20260505214904 | 74 | 227 | 7.0 | 20.0 | 0.00 | 0.02 | 0.02 | 49 | 1004.1 |
| 20260505214404 | 74 | 223 | 9.0 | 16.0 | 0.00 | 0.02 | 0.02 | 49 | 1004.1 |
| 20260505213904 | 74 | 215 | 8.0 | 18.0 | 0.00 | 0.02 | 0.02 | 49 | 1004.2 |
| 20260505213404 | 74 | 215 | 8.0 | 15.0 | 0.00 | 0.02 | 0.02 | 49 | 1004.3 |
| 20260505212904 | 74 | 231 | 6.0 | 13.0 | 0.00 | 0.02 | 0.02 | 49 | 1004.3 |
| 20260505212404 | 74 | 225 | 9.0 | 15.0 | 0.00 | 0.02 | 0.02 | 49 | 1004.1 |
| 20260505211904 | 74 | 216 | 9.0 | 20.0 | 0.00 | 0.02 | 0.02 | 49 | 1004.1 |
| 20260505211403 | 74 | 208 | 8.0 | 15.0 | 0.00 | 0.02 | 0.02 | 49 | 1004.0 |
| 20260505210904 | 74 | 222 | 9.0 | 22.0 | 0.00 | 0.02 | 0.02 | 49 | 1004.0 |
| 20260505205903 | 74 | 238 | 9.0 | 17.0 | 0.00 | 0.02 | 0.02 | 48 | 1003.9 |
| 20260505205404 | 74 | 223 | 8.0 | 15.0 | 0.00 | 0.02 | 0.02 | 48 | 1004.0 |
| 20260505204904 | 74 | 243 | 6.0 | 13.0 | 0.00 | 0.02 | 0.02 | 48 | 1004.0 |
| 20260505204403 | 75 | 213 | 10.0 | 16.0 | 0.00 | 0.02 | 0.02 | 48 | 1003.8 |
| 20260505203904 | 75 | 209 | 10.0 | 17.0 | 0.00 | 0.02 | 0.02 | 48 | 1003.8 |
| 20260505203404 | 75 | 226 | 9.0 | 17.0 | 0.00 | 0.02 | 0.02 | 48 | 1003.9 |
| 20260505202903 | 75 | 215 | 10.0 | 20.0 | 0.00 | 0.02 | 0.02 | 48 | 1003.8 |
| 20260505202403 | 75 | 213 | 13.0 | 22.0 | 0.00 | 0.02 | 0.02 | 47 | 1003.9 |
| 20260505201404 | 76 | 235 | 12.0 | 25.0 | 0.00 | 0.02 | 0.02 | 48 | 1004.1 |
| 20260505200904 | 76 | 207 | 14.0 | 22.0 | 0.00 | 0.02 | 0.02 | 47 | 1004.1 |
| 20260505200403 | 76 | 210 | 10.0 | 20.0 | 0.00 | 0.02 | 0.02 | 48 | 1004.0 |
| 20260505195903 | 76 | 222 | 10.0 | 17.0 | 0.00 | 0.02 | 0.02 | 48 | 1004.0 |
| 20260505195404 | 75 | 208 | 11.0 | 21.0 | 0.00 | 0.02 | 0.02 | 47 | 1004.0 |
| 20260505194904 | 76 | 216 | 13.0 | 20.0 | 0.00 | 0.02 | 0.02 | 47 | 1004.0 |
| 20260505194403 | 76 | 201 | 10.0 | 20.0 | 0.00 | 0.02 | 0.02 | 48 | 1003.9 |
| 20260505193904 | 76 | 203 | 13.0 | 26.0 | 0.00 | 0.02 | 0.02 | 47 | 1003.9 |
| 20260505193404 | 75 | 209 | 9.0 | 15.0 | 0.00 | 0.02 | 0.02 | 48 | 1003.9 |
| 20260505192905 | 75 | 210 | 12.0 | 24.0 | 0.00 | 0.02 | 0.02 | 48 | 1004.1 |
| 20260505192405 | 75 | 210 | 9.0 | 21.0 | 0.00 | 0.02 | 0.02 | 48 | 1004.2 |
| 20260505191405 | 75 | 205 | 10.0 | 24.0 | 0.00 | 0.02 | 0.02 | 49 | 1004.5 |
| 20260505190905 | 75 | 212 | 9.0 | 17.0 | 0.00 | 0.02 | 0.02 | 49 | 1004.5 |
| 20260505190405 | 75 | 214 | 9.0 | 15.0 | 0.00 | 0.02 | 0.02 | 49 | 1004.5 |
| 20260505184905 | 76 | 221 | 12.0 | 20.0 | 0.00 | 0.02 | 0.02 | 45 | 1004.9 |
| 20260505184406 | 76 | 252 | 10.0 | 25.0 | 0.00 | 0.02 | 0.02 | 44 | 1005.0 |
| 20260505183906 | 76 | 247 | 10.0 | 18.0 | 0.00 | 0.02 | 0.02 | 45 | 1005.0 |
| 20260505183405 | 75 | 249 | 8.0 | 21.0 | 0.00 | 0.02 | 0.02 | 44 | 1005.0 |
| 20260505182905 | 75 | 224 | 12.0 | 24.0 | 0.00 | 0.02 | 0.02 | 44 | 1005.1 |
| 20260505182405 | 75 | 223 | 14.0 | 24.0 | 0.00 | 0.02 | 0.02 | 44 | 1005.3 |
| 20260505181906 | 75 | 243 | 10.0 | 20.0 | 0.00 | 0.02 | 0.02 | 44 | 1005.1 |
| 20260505180905 | 74 | 224 | 13.0 | 20.0 | 0.00 | 0.02 | 0.02 | 48 | 1005.4 |
| 20260505180405 | 74 | 206 | 10.0 | 17.0 | 0.00 | 0.02 | 0.02 | 50 | 1005.3 |
| 20260505175905 | 74 | 242 | 8.0 | 14.0 | 0.00 | 0.02 | 0.02 | 47 | 1005.4 |
| 20260505175406 | 74 | 236 | 10.0 | 18.0 | 0.00 | 0.02 | 0.02 | 49 | 1005.5 |
| 20260505174905 | 74 | 216 | 12.0 | 21.0 | 0.00 | 0.02 | 0.02 | 51 | 1005.5 |
| 20260505174405 | 74 | 223 | 9.0 | 18.0 | 0.00 | 0.02 | 0.02 | 52 | 1005.5 |
| 20260505173905 | 74 | 229 | 7.0 | 15.0 | 0.00 | 0.02 | 0.02 | 53 | 1005.5 |
| 20260505173405 | 74 | 219 | 5.0 | 12.0 | 0.00 | 0.02 | 0.02 | 52 | 1005.5 |
| 20260505172406 | 73 | 253 | 6.0 | 17.0 | 0.00 | 0.02 | 0.02 | 52 | 1005.5 |
| 20260505171905 | 73 | 245 | 9.0 | 17.0 | 0.00 | 0.02 | 0.02 | 52 | 1005.5 |
| 20260505170905 | 73 | 255 | 8.0 | 18.0 | 0.00 | 0.02 | 0.02 | 51 | 1005.7 |
| 20260505165905 | 73 | 330 | 6.0 | 17.0 | 0.00 | 0.02 | 0.02 | 52 | 1005.9 |
| 20260505164906 | 73 | 255 | 6.0 | 15.0 | 0.00 | 0.02 | 0.02 | 52 | 1005.9 |
| 20260505164405 | 73 | 259 | 7.0 | 16.0 | 0.00 | 0.02 | 0.02 | 53 | 1006.0 |
| 20260505163905 | 73 | 252 | 7.0 | 20.0 | 0.00 | 0.02 | 0.02 | 51 | 1006.0 |
| 20260505162405 | 73 | 283 | 7.0 | 17.0 | 0.00 | 0.02 | 0.02 | 54 | 1006.1 |
| 20260505161905 | 73 | 222 | 8.0 | 21.0 | 0.00 | 0.02 | 0.02 | 55 | 1006.2 |
| 20260505161405 | 72 | 265 | 9.0 | 17.0 | 0.00 | 0.02 | 0.02 | 55 | 1006.2 |
| 20260505160405 | 72 | 348 | 7.0 | 20.0 | 0.00 | 0.02 | 0.02 | 56 | 1006.3 |
| 20260505152905 | 71 | 248 | 7.0 | 17.0 | 0.00 | 0.02 | 0.02 | 59 | 1006.8 |
| 20260505152405 | 70 | 247 | 6.0 | 15.0 | 0.00 | 0.02 | 0.02 | 59 | 1006.8 |
| 20260505151905 | 70 | 259 | 8.0 | 17.0 | 0.00 | 0.02 | 0.02 | 60 | 1006.9 |
| 20260505151405 | 70 | 241 | 5.0 | 12.0 | 0.00 | 0.02 | 0.02 | 61 | 1006.7 |
| 20260505150905 | 69 | 295 | 7.0 | 14.0 | 0.00 | 0.02 | 0.02 | 60 | 1006.9 |
| 20260505150405 | 69 | 211 | 9.0 | 15.0 | 0.00 | 0.02 | 0.02 | 61 | 1006.7 |
| 20260505124905 | 65 | 247 | 7.0 | 15.0 | 0.00 | 0.02 | 0.02 | 65 | 1007.1 |
| 20260505124405 | 65 | 228 | 7.0 | 15.0 | 0.00 | 0.02 | 0.02 | 66 | 1007.1 |
| 20260505123405 | 64 | 241 | 6.0 | 12.0 | 0.00 | 0.02 | 0.02 | 67 | 1007.1 |
| 20260505122905 | 63 | 247 | 7.0 | 12.0 | 0.00 | 0.02 | 0.02 | 68 | 1007.1 |
| 20260505121905 | 63 | 217 | 6.0 | 10.0 | 0.00 | 0.02 | 0.02 | 69 | 1007.0 |
| 20260505121405 | 62 | 209 | 7.0 | 13.0 | 0.00 | 0.02 | 0.02 | 69 | 1007.1 |
| 20260505120905 | 62 | 289 | 6.0 | 12.0 | 0.00 | 0.02 | 0.02 | 70 | 1007.3 |
| 20260505115404 | 61 | 205 | 7.0 | 13.0 | 0.00 | 0.02 | 0.02 | 70 | 1007.1 |
| 20260505114905 | 61 | 212 | 7.0 | 13.0 | 0.00 | 0.02 | 0.02 | 71 | 1007.0 |
| 20260505114405 | 61 | 211 | 7.0 | 12.0 | 0.00 | 0.02 | 0.02 | 71 | 1006.9 |
| 20260505113905 | 61 | 215 | 8.0 | 16.0 | 0.00 | 0.02 | 0.02 | 71 | 1006.9 |
| 20260505113404 | 60 | 211 | 7.0 | 12.0 | 0.00 | 0.02 | 0.02 | 72 | 1007.1 |
| 20260505112905 | 60 | 211 | 8.0 | 14.0 | 0.00 | 0.02 | 0.02 | 73 | 1007.0 |
| 20260505112405 | 59 | 216 | 6.0 | 12.0 | 0.00 | 0.02 | 0.02 | 74 | 1007.0 |
| 20260505111906 | 59 | 222 | 6.0 | 10.0 | 0.00 | 0.02 | 0.02 | 75 | 1006.8 |
| 20260505111405 | 59 | 206 | 6.0 | 10.0 | 0.00 | 0.02 | 0.02 | 75 | 1006.9 |
| 20260505110904 | 58 | 212 | 6.0 | 10.0 | 0.00 | 0.02 | 0.02 | 75 | 1006.9 |
| 20260505110404 | 58 | 206 | 7.0 | 12.0 | 0.00 | 0.02 | 0.02 | 76 | 1006.7 |
| 20260505101905 | 57 | 206 | 9.0 | 13.0 | 0.00 | 0.02 | 0.02 | 78 | 1006.4 |
| 20260505100904 | 57 | 203 | 8.0 | 13.0 | 0.00 | 0.02 | 0.02 | 78 | 1006.5 |
| 20260505100405 | 58 | 196 | 8.0 | 14.0 | 0.00 | 0.02 | 0.02 | 77 | 1006.4 |
| 20260505095905 | 58 | 202 | 7.0 | 13.0 | 0.00 | 0.02 | 0.02 | 77 | 1006.4 |
| 20260505095405 | 58 | 205 | 7.0 | 12.0 | 0.00 | 0.02 | 0.02 | 77 | 1006.3 |
| 20260505094905 | 58 | 208 | 8.0 | 13.0 | 0.00 | 0.02 | 0.02 | 77 | 1006.1 |
| 20260505094404 | 58 | 201 | 8.0 | 13.0 | 0.00 | 0.02 | 0.02 | 77 | 1006.0 |
| 20260505093905 | 58 | 209 | 8.0 | 12.0 | 0.00 | 0.02 | 0.02 | 77 | 1006.1 |
| 20260505092905 | 58 | 199 | 7.0 | 13.0 | 0.00 | 0.02 | 0.02 | 77 | 1006.0 |
| 20260505091904 | 58 | 203 | 7.0 | 12.0 | 0.00 | 0.02 | 0.02 | 78 | 1006.0 |
| 20260505091404 | 58 | 199 | 7.0 | 12.0 | 0.00 | 0.02 | 0.02 | 78 | 1006.0 |
| 20260505090904 | 57 | 201 | 6.0 | 10.0 | 0.00 | 0.02 | 0.02 | 79 | 1006.0 |
| 20260505090405 | 57 | 202 | 7.0 | 12.0 | 0.00 | 0.02 | 0.02 | 80 | 1006.1 |
| 20260505085905 | 57 | 206 | 7.0 | 12.0 | 0.02 | 0.02 | 0.02 | 80 | 1006.1 |
| 20260505084905 | 57 | 201 | 7.0 | 12.0 | 0.02 | 0.02 | 0.02 | 80 | 1006.1 |
| 20260505084405 | 58 | 210 | 7.0 | 13.0 | 0.02 | 0.02 | 0.02 | 79 | 1006.1 |
| 20260505083904 | 58 | 209 | 7.0 | 15.0 | 0.02 | 0.02 | 0.02 | 79 | 1006.2 |
| 20260505083406 | 58 | 215 | 9.0 | 13.0 | 0.02 | 0.02 | 0.02 | 79 | 1006.1 |
| 20260505082904 | 58 | 205 | 7.0 | 10.0 | 0.02 | 0.02 | 0.02 | 80 | 1006.2 |
| 20260505082406 | 58 | 202 | 7.0 | 14.0 | 0.02 | 0.02 | 0.02 | 79 | 1006.0 |
| 20260505081906 | 58 | 210 | 5.0 | 9.0 | 0.02 | 0.02 | 0.02 | 79 | 1005.9 |
| 20260505081404 | 58 | 195 | 7.0 | 14.0 | 0.02 | 0.02 | 0.02 | 78 | 1005.9 |
| 20260505080405 | 58 | 205 | 10.0 | 17.0 | 0.02 | 0.02 | 0.02 | 77 | 1006.2 |
| 20260505075905 | 59 | 211 | 10.0 | 16.0 | 0.00 | 0.00 | 0.00 | 73 | 1006.3 |
| 20260505075404 | 59 | 207 | 10.0 | 18.0 | 0.00 | 0.00 | 0.00 | 72 | 1006.3 |
| 20260505074905 | 58 | 210 | 6.0 | 12.0 | 0.00 | 0.00 | 0.00 | 71 | 1006.2 |
| 20260505074404 | 58 | 204 | 5.0 | 12.0 | 0.00 | 0.00 | 0.00 | 71 | 1006.1 |
| 20260505073904 | 58 | 194 | 5.0 | 9.0 | 0.00 | 0.00 | 0.00 | 71 | 1006.1 |
| 20260505073404 | 58 | 197 | 6.0 | 9.0 | 0.00 | 0.00 | 0.00 | 71 | 1006.0 |
| 20260505072904 | 58 | 198 | 5.0 | 8.0 | 0.00 | 0.00 | 0.00 | 71 | 1006.0 |
| 20260505072405 | 58 | 188 | 3.0 | 7.0 | 0.00 | 0.00 | 0.00 | 71 | 1006.1 |
| 20260505071405 | 58 | 190 | 3.0 | 8.0 | 0.00 | 0.00 | 0.00 | 70 | 1006.2 |
| 20260505070904 | 58 | 198 | 3.0 | 5.0 | 0.00 | 0.00 | 0.00 | 70 | 1006.3 |
| 20260505070404 | 58 | 192 | 5.0 | 8.0 | 0.00 | 0.00 | 0.00 | 70 | 1006.3 |
| 20260505065905 | 58 | 193 | 6.0 | 9.0 | 0.00 | 0.00 | 0.00 | 70 | 1006.4 |
| 20260505064904 | 59 | 196 | 5.0 | 10.0 | 0.00 | 0.00 | 0.00 | 69 | 1006.4 |
| 20260505064405 | 59 | 203 | 5.0 | 12.0 | 0.00 | 0.00 | 0.00 | 69 | 1006.4 |
| 20260505063905 | 59 | 206 | 7.0 | 9.0 | 0.00 | 0.00 | 0.00 | 69 | 1006.5 |
| 20260505063405 | 58 | 201 | 8.0 | 12.0 | 0.00 | 0.00 | 0.00 | 69 | 1006.5 |
| 20260505062404 | 59 | 202 | 6.0 | 12.0 | 0.00 | 0.00 | 0.00 | 68 | 1006.6 |
| 20260505061904 | 58 | 205 | 6.0 | 10.0 | 0.00 | 0.00 | 0.00 | 68 | 1006.6 |
| 20260505061404 | 59 | 204 | 6.0 | 12.0 | 0.00 | 0.00 | 0.00 | 68 | 1006.5 |
| 20260505060904 | 59 | 204 | 6.0 | 10.0 | 0.00 | 0.00 | 0.00 | 67 | 1006.5 |
| 20260505060404 | 59 | 202 | 6.0 | 12.0 | 0.00 | 0.00 | 0.00 | 67 | 1006.7 |
| 20260505055904 | 58 | 206 | 7.0 | 13.0 | 0.00 | 0.00 | 0.00 | 67 | 1006.8 |
| 20260505055404 | 58 | 201 | 7.0 | 12.0 | 0.00 | 0.00 | 0.00 | 67 | 1006.7 |
| 20260505054904 | 58 | 202 | 6.0 | 10.0 | 0.00 | 0.00 | 0.00 | 67 | 1006.8 |
| 20260505053904 | 58 | 209 | 7.0 | 12.0 | 0.00 | 0.00 | 0.00 | 67 | 1006.7 |
| 20260505053405 | 58 | 205 | 6.0 | 10.0 | 0.00 | 0.00 | 0.00 | 66 | 1006.7 |
| 20260505052404 | 59 | 211 | 7.0 | 15.0 | 0.00 | 0.00 | 0.00 | 66 | 1006.7 |
| 20260505051904 | 59 | 208 | 8.0 | 13.0 | 0.00 | 0.00 | 0.00 | 66 | 1006.7 |
| 20260505051404 | 59 | 200 | 8.0 | 13.0 | 0.00 | 0.00 | 0.00 | 66 | 1006.7 |
| 20260505050904 | 59 | 207 | 7.0 | 12.0 | 0.00 | 0.00 | 0.00 | 66 | 1006.5 |
| 20260505050404 | 59 | 204 | 7.0 | 12.0 | 0.00 | 0.00 | 0.00 | 65 | 1006.6 |
| 20260505041405 | 59 | 199 | 7.0 | 13.0 | 0.00 | 0.00 | 0.00 | 64 | 1006.4 |
| 20260505040904 | 59 | 199 | 7.0 | 14.0 | 0.00 | 0.00 | 0.00 | 64 | 1006.5 |
| 20260505040404 | 59 | 199 | 5.0 | 12.0 | 0.00 | 0.00 | 0.00 | 63 | 1006.4 |
| 20260505035904 | 59 | 191 | 6.0 | 10.0 | 0.00 | 0.00 | 0.00 | 63 | 1006.5 |
| 20260505035404 | 59 | 191 | 6.0 | 9.0 | 0.00 | 0.00 | 0.00 | 63 | 1006.5 |
| 20260505034905 | 59 | 193 | 8.0 | 13.0 | 0.00 | 0.00 | 0.00 | 63 | 1006.5 |
| 20260505034404 | 59 | 191 | 6.0 | 16.0 | 0.00 | 0.00 | 0.00 | 63 | 1006.5 |
| 20260505033904 | 59 | 199 | 6.0 | 10.0 | 0.00 | 0.00 | 0.00 | 63 | 1006.4 |
| 20260505033404 | 59 | 191 | 5.0 | 10.0 | 0.00 | 0.00 | 0.00 | 63 | 1006.4 |
| 20260505032904 | 59 | 186 | 6.0 | 12.0 | 0.00 | 0.00 | 0.00 | 62 | 1006.4 |
| 20260505032404 | 59 | 191 | 5.0 | 12.0 | 0.00 | 0.00 | 0.00 | 62 | 1006.4 |
| 20260505031904 | 59 | 188 | 5.0 | 10.0 | 0.00 | 0.00 | 0.00 | 62 | 1006.4 |
| 20260505031404 | 59 | 177 | 6.0 | 9.0 | 0.00 | 0.00 | 0.00 | 62 | 1006.4 |
| 20260505030904 | 59 | 180 | 4.0 | 10.0 | 0.00 | 0.00 | 0.00 | 62 | 1006.5 |
| 20260505030404 | 59 | 186 | 6.0 | 13.0 | 0.00 | 0.00 | 0.00 | 61 | 1006.6 |
| 20260505025904 | 59 | 183 | 5.0 | 10.0 | 0.00 | 0.00 | 0.00 | 61 | 1006.7 |
| 20260505025404 | 60 | 176 | 5.0 | 12.0 | 0.00 | 0.00 | 0.00 | 61 | 1006.7 |
| 20260505024904 | 60 | 184 | 6.0 | 12.0 | 0.00 | 0.00 | 0.00 | 61 | 1006.7 |
| 20260505024404 | 60 | 185 | 6.0 | 12.0 | 0.00 | 0.00 | 0.00 | 61 | 1006.8 |
| 20260505023904 | 60 | 175 | 6.0 | 10.0 | 0.00 | 0.00 | 0.00 | 61 | 1006.8 |
| 20260505023404 | 60 | 179 | 7.0 | 13.0 | 0.00 | 0.00 | 0.00 | 60 | 1006.6 |
| 20260505022904 | 60 | 187 | 6.0 | 13.0 | 0.00 | 0.00 | 0.00 | 60 | 1006.7 |
| 20260505021904 | 60 | 197 | 7.0 | 15.0 | 0.00 | 0.00 | 0.00 | 60 | 1007.0 |
| 20260505020904 | 60 | 195 | 6.0 | 12.0 | 0.00 | 0.00 | 0.00 | 60 | 1006.9 |
| 20260505020404 | 61 | 188 | 7.0 | 17.0 | 0.00 | 0.00 | 0.00 | 60 | 1006.9 |
| 20260505015904 | 61 | 203 | 6.0 | 13.0 | 0.00 | 0.00 | 0.00 | 60 | 1007.0 |
| 20260505015404 | 61 | 192 | 7.0 | 13.0 | 0.00 | 0.00 | 0.00 | 59 | 1006.9 |
| 20260505013904 | 61 | 199 | 8.0 | 17.0 | 0.00 | 0.00 | 0.00 | 59 | 1006.8 |
| 20260505013404 | 61 | 194 | 7.0 | 12.0 | 0.00 | 0.00 | 0.00 | 59 | 1006.8 |
| 20260505012904 | 61 | 190 | 8.0 | 15.0 | 0.00 | 0.00 | 0.00 | 59 | 1006.8 |
| 20260505012404 | 61 | 194 | 7.0 | 14.0 | 0.00 | 0.00 | 0.00 | 59 | 1006.7 |
| 20260505011905 | 62 | 206 | 7.0 | 16.0 | 0.00 | 0.00 | 0.00 | 58 | 1006.8 |
| 20260505011404 | 62 | 202 | 8.0 | 16.0 | 0.00 | 0.00 | 0.00 | 58 | 1006.6 |
| 20260505010904 | 62 | 200 | 7.0 | 17.0 | 0.00 | 0.00 | 0.00 | 58 | 1006.6 |
| 20260505005404 | 63 | 206 | 9.0 | 15.0 | 0.00 | 0.00 | 0.00 | 57 | 1006.4 |
| 20260505004905 | 63 | 199 | 7.0 | 13.0 | 0.00 | 0.00 | 0.00 | 56 | 1006.4 |
| 20260505004404 | 63 | 194 | 7.0 | 14.0 | 0.00 | 0.00 | 0.00 | 56 | 1006.4 |
| 20260505003904 | 63 | 200 | 9.0 | 17.0 | 0.00 | 0.00 | 0.00 | 55 | 1006.3 |
| 20260505003404 | 64 | 194 | 6.0 | 13.0 | 0.00 | 0.00 | 0.00 | 55 | 1006.2 |
| 20260505002904 | 64 | 201 | 8.0 | 13.0 | 0.00 | 0.00 | 0.00 | 55 | 1006.3 |
| 20260505002404 | 64 | 205 | 7.0 | 12.0 | 0.00 | 0.00 | 0.00 | 55 | 1006.2 |
| 20260505001404 | 64 | 207 | 7.0 | 15.0 | 0.00 | 0.00 | 0.00 | 54 | 1006.1 |
| 20260505000904 | 64 | 211 | 7.0 | 12.0 | 0.00 | 0.00 | 0.00 | 54 | 1006.1 |
| 20260505000405 | 64 | 202 | 8.0 | 14.0 | 0.00 | 0.00 | 0.00 | 54 | 1006.1 |
| 20260504235904 | 64 | 205 | 7.0 | 15.0 | 0.00 | 0.00 | 0.00 | 54 | 1006.1 |
| 20260504235404 | 65 | 213 | 9.0 | 16.0 | 0.00 | 0.00 | 0.00 | 53 | 1006.1 |
| 20260504234904 | 65 | 198 | 9.0 | 16.0 | 0.00 | 0.00 | 0.00 | 53 | 1006.0 |
| 20260504234404 | 65 | 213 | 7.0 | 16.0 | 0.00 | 0.00 | 0.00 | 53 | 1006.0 |
| 20260504233904 | 65 | 210 | 9.0 | 17.0 | 0.00 | 0.00 | 0.00 | 52 | 1005.9 |
| 20260504233404 | 65 | 213 | 10.0 | 18.0 | 0.00 | 0.00 | 0.00 | 52 | 1005.9 |
| 20260504232903 | 65 | 211 | 11.0 | 17.0 | 0.00 | 0.00 | 0.00 | 52 | 1005.8 |
| 20260504232404 | 65 | 208 | 9.0 | 20.0 | 0.00 | 0.00 | 0.00 | 52 | 1005.9 |
| 20260504231904 | 66 | 207 | 9.0 | 16.0 | 0.00 | 0.00 | 0.00 | 52 | 1005.9 |
| 20260504231404 | 66 | 208 | 9.0 | 13.0 | 0.00 | 0.00 | 0.00 | 51 | 1005.8 |
| 20260504230904 | 66 | 211 | 6.0 | 13.0 | 0.00 | 0.00 | 0.00 | 51 | 1005.9 |
| 20260504230404 | 66 | 202 | 10.0 | 17.0 | 0.00 | 0.00 | 0.00 | 51 | 1005.9 |
| 20260504225904 | 66 | 205 | 6.0 | 12.0 | 0.00 | 0.00 | 0.00 | 51 | 1005.7 |
| 20260504224404 | 66 | 203 | 8.0 | 18.0 | 0.00 | 0.00 | 0.00 | 50 | 1005.7 |